When you browse on this site, cookies collect data to enhance your experience and personalize the content and advertising you see.
Visit our Privacy Policy to learn more. By continuing to use the site, you agree to this use of cookies and data.
  • In Österreich
  • Länderverzeichnis
  • Für 7 Tage
  • Wassertemperatur
  • Wetterkarte
  • News
  • Widgets
  • user-avatar
    Anmelden

    Stündliche Wetter Zastav'ya

    Heute, 29 Januar, Mittwoch

    Zeit Temperatur Niederschläge Wind Luftdruck Luftfeuchtigkeit
    00:00 0°C° 0 mm 3 m/S 733 mmHg 91%
    01:00 0°C° 0 mm 3 m/S 733 mmHg 91%
    02:00 0°C° 0 mm 3 m/S 732 mmHg 93%
    03:00 0°C° 0 mm 3 m/S 731 mmHg 93%
    04:00 0°C° 0 mm 3 m/S 731 mmHg 92%
    05:00 0°C° 0 mm 3 m/S 730 mmHg 92%
    06:00 0°C° 0.2 mm 3 m/S 730 mmHg 93%
    07:00 0°C° 0.2 mm 3 m/S 730 mmHg 94%
    08:00 0°C° 0 mm 3 m/S 730 mmHg 95%
    09:00 -1°C° 1.6 mm 4 m/S 730 mmHg 96%
    10:00 -1°C° 1.6 mm 4 m/S 730 mmHg 97%
    11:00 -1°C° 1.6 mm 5 m/S 730 mmHg 97%
    12:00 -1°C° 0.1 mm 5 m/S 731 mmHg 94%
    13:00 0°C° 0.1 mm 5 m/S 731 mmHg 90%
    14:00 -1°C° 0.1 mm 6 m/S 731 mmHg 87%
    15:00 0°C° 0 mm 5 m/S 731 mmHg 85%
    16:00 0°C° 0 mm 5 m/S 731 mmHg 82%
    17:00 0°C° 0 mm 5 m/S 731 mmHg 80%
    18:00 -1°C° 0 mm 5 m/S 732 mmHg 82%
    19:00 -2°C° 0 mm 5 m/S 732 mmHg 85%
    20:00 -2°C° 0 mm 4 m/S 732 mmHg 87%
    21:00 -2°C° 0.1 mm 5 m/S 732 mmHg 90%
    22:00 -2°C° 0.1 mm 5 m/S 732 mmHg 93%
    23:00 -3°C° 0.1 mm 6 m/S 732 mmHg 97%

    Morgen, 30 Januar, Donnerstag

    Zeit Temperatur Niederschläge Wind Luftdruck Luftfeuchtigkeit
    00:00 -3°C° 0.7 mm 6 m/S 732 mmHg 96%
    01:00 -2°C° 0.7 mm 7 m/S 732 mmHg 96%
    02:00 -2°C° 0.7 mm 7 m/S 732 mmHg 96%
    03:00 -2°C° 0.3 mm 7 m/S 733 mmHg 96%
    04:00 -2°C° 0.3 mm 8 m/S 733 mmHg 95%
    05:00 -2°C° 0.3 mm 8 m/S 733 mmHg 95%
    06:00 -2°C° 0.1 mm 8 m/S 733 mmHg 95%
    07:00 -2°C° 0.1 mm 7 m/S 734 mmHg 95%
    08:00 -2°C° 0.1 mm 7 m/S 734 mmHg 95%
    09:00 -2°C° 0.2 mm 7 m/S 734 mmHg 95%
    10:00 -2°C° 0.2 mm 7 m/S 734 mmHg 95%
    11:00 -2°C° 0.2 mm 7 m/S 735 mmHg 95%
    12:00 -2°C° 0.2 mm 7 m/S 735 mmHg 93%
    13:00 -1°C° 0.2 mm 7 m/S 735 mmHg 91%
    14:00 -1°C° 0.2 mm 6 m/S 736 mmHg 88%
    15:00 -1°C° 0 mm 6 m/S 736 mmHg 90%
    16:00 -2°C° 0 mm 6 m/S 736 mmHg 92%
    17:00 -1°C° 0 mm 5 m/S 736 mmHg 93%
    18:00 -1°C° 0.1 mm 5 m/S 736 mmHg 91%
    19:00 -1°C° 0.1 mm 5 m/S 737 mmHg 88%
    20:00 -1°C° 0.1 mm 5 m/S 737 mmHg 86%
    21:00 -1°C° 0 mm 5 m/S 737 mmHg 86%
    22:00 -2°C° 0 mm 4 m/S 737 mmHg 86%
    23:00 -1°C° 0 mm 3 m/S 736 mmHg 86%

    übermorgen, 31 Januar, Freitag

    Zeit Temperatur Niederschläge Wind Luftdruck Luftfeuchtigkeit
    00:00 -2°C° 0 mm 4 m/S 736 mmHg 88%
    01:00 -2°C° 0 mm 4 m/S 736 mmHg 91%
    02:00 -2°C° 0 mm 5 m/S 736 mmHg 93%
    03:00 -1°C° 0.2 mm 5 m/S 735 mmHg 94%
    04:00 -1°C° 0.2 mm 5 m/S 735 mmHg 95%
    05:00 0°C° 0.2 mm 5 m/S 734 mmHg 96%
    06:00 0°C° 0.2 mm 5 m/S 734 mmHg 96%
    07:00 0°C° 0.2 mm 5 m/S 734 mmHg 96%
    08:00 0°C° 0.2 mm 5 m/S 733 mmHg 96%
    09:00 0°C° 0.1 mm 5 m/S 733 mmHg 93%
    10:00 +1°C° 0.1 mm 5 m/S 732 mmHg 91%
    11:00 +1°C° 0.1 mm 4 m/S 732 mmHg 88%
    12:00 0°C° 0.9 mm 4 m/S 731 mmHg 91%
    13:00 0°C° 0.9 mm 4 m/S 731 mmHg 95%
    14:00 -1°C° 0.9 mm 4 m/S 730 mmHg 98%
    15:00 0°C° 1 mm 3 m/S 730 mmHg 98%
    16:00 +1°C° 1 mm 2 m/S 730 mmHg 98%
    17:00 +2°C° 1 mm 1 m/S 730 mmHg 99%
    18:00 +1°C° 0.1 mm 2 m/S 731 mmHg 99%
    19:00 +1°C° 0.1 mm 2 m/S 732 mmHg 99%
    20:00 +1°C° 0.1 mm 2 m/S 733 mmHg 99%
    21:00 +1°C° 0 mm 2 m/S 733 mmHg 98%
    22:00 +1°C° 0 mm 2 m/S 734 mmHg 98%
    23:00 +1°C° 0 mm 2 m/S 735 mmHg 98%

    1 Februar, Samstag

    Zeit Temperatur Niederschläge Wind Luftdruck Luftfeuchtigkeit
    00:00 +1°C° 0 mm 3 m/S 736 mmHg 98%
    01:00 +1°C° 0 mm 3 m/S 736 mmHg 97%
    02:00 +1°C° 0 mm 3 m/S 737 mmHg 97%
    03:00 0°C° 0 mm 3 m/S 737 mmHg 97%
    04:00 +1°C° 0 mm 2 m/S 737 mmHg 97%
    05:00 +1°C° 0 mm 2 m/S 738 mmHg 97%
    06:00 +1°C° 0 mm 2 m/S 738 mmHg 96%
    07:00 +1°C° 0 mm 2 m/S 738 mmHg 95%
    08:00 +1°C° 0 mm 2 m/S 738 mmHg 95%
    09:00 +1°C° 0.1 mm 2 m/S 738 mmHg 96%
    10:00 +2°C° 0.1 mm 2 m/S 739 mmHg 96%
    11:00 +1°C° 0.1 mm 3 m/S 739 mmHg 97%
    12:00 +2°C° 0.1 mm 3 m/S 738 mmHg 97%
    13:00 +2°C° 0.1 mm 3 m/S 738 mmHg 97%
    14:00 +3°C° 0.1 mm 3 m/S 738 mmHg 97%
    15:00 +3°C° 0 mm 3 m/S 738 mmHg 96%
    16:00 +3°C° 0 mm 3 m/S 738 mmHg 95%
    17:00 +3°C° 0 mm 3 m/S 737 mmHg 94%
    18:00 +3°C° 0 mm 4 m/S 737 mmHg 91%
    19:00 +3°C° 0 mm 5 m/S 737 mmHg 89%
    20:00 +3°C° 0 mm 5 m/S 737 mmHg 86%
    21:00 +3°C° 0 mm 5 m/S 736 mmHg 86%
    22:00 +3°C° 0 mm 5 m/S 736 mmHg 86%
    23:00 +3°C° 0 mm 5 m/S 736 mmHg 86%

    2 Februar, Sonntag

    Zeit Temperatur Niederschläge Wind Luftdruck Luftfeuchtigkeit
    00:00 +3°C° 0 mm 5 m/S 735 mmHg 87%
    01:00 +3°C° 0 mm 5 m/S 735 mmHg 87%
    02:00 +5°C° 0 mm 5 m/S 734 mmHg 87%
    03:00 +5°C° 0.3 mm 5 m/S 734 mmHg 89%
    04:00 +4°C° 0.3 mm 6 m/S 734 mmHg 90%
    05:00 +4°C° 0.3 mm 6 m/S 733 mmHg 92%
    06:00 +5°C° 0.5 mm 5 m/S 734 mmHg 93%
    07:00 +5°C° 0.5 mm 5 m/S 734 mmHg 94%
    08:00 +6°C° 0.5 mm 5 m/S 734 mmHg 95%
    09:00 +6°C° 0.2 mm 5 m/S 735 mmHg 88%
    10:00 +5°C° 0.2 mm 6 m/S 736 mmHg 81%
    11:00 +5°C° 0.2 mm 7 m/S 736 mmHg 74%
    12:00 +4°C° 0 mm 7 m/S 737 mmHg 72%
    13:00 +4°C° 0 mm 7 m/S 738 mmHg 71%
    14:00 +4°C° 0 mm 7 m/S 738 mmHg 69%
    15:00 +4°C° 0 mm 6 m/S 738 mmHg 69%
    16:00 +3°C° 0 mm 6 m/S 738 mmHg 70%
    17:00 +3°C° 0 mm 5 m/S 739 mmHg 70%
    18:00 +2°C° 0 mm 5 m/S 739 mmHg 75%
    19:00 +2°C° 0 mm 6 m/S 739 mmHg 80%
    20:00 +1°C° 0 mm 6 m/S 739 mmHg 84%
    21:00 +2°C° 0.1 mm 6 m/S 739 mmHg 82%
    22:00 +2°C° 0.1 mm 7 m/S 739 mmHg 79%
    23:00 +2°C° 0.1 mm 7 m/S 740 mmHg 77%

    3 Februar, Montag

    Zeit Temperatur Niederschläge Wind Luftdruck Luftfeuchtigkeit
    00:00 +2°C° 0 mm 6 m/S 740 mmHg 77%
    01:00 +1°C° 0 mm 6 m/S 740 mmHg 77%
    02:00 +1°C° 0 mm 5 m/S 740 mmHg 78%
    03:00 +1°C° 0 mm 5 m/S 740 mmHg 79%
    04:00 +1°C° 0 mm 5 m/S 740 mmHg 81%
    05:00 +1°C° 0 mm 5 m/S 740 mmHg 82%
    06:00 +1°C° 0 mm 5 m/S 740 mmHg 84%
    07:00 0°C° 0 mm 5 m/S 739 mmHg 86%
    08:00 0°C° 0 mm 5 m/S 739 mmHg 88%
    09:00 +1°C° 0 mm 4 m/S 739 mmHg 88%
    10:00 +1°C° 0 mm 4 m/S 739 mmHg 88%
    11:00 +1°C° 0 mm 4 m/S 739 mmHg 88%
    12:00 +1°C° 0 mm 4 m/S 739 mmHg 89%
    13:00 +1°C° 0 mm 4 m/S 739 mmHg 90%
    14:00 +3°C° 0 mm 3 m/S 739 mmHg 91%
    15:00 +3°C° 0.1 mm 3 m/S 739 mmHg 92%
    16:00 +3°C° 0.1 mm 3 m/S 739 mmHg 92%
    17:00 +3°C° 0.1 mm 3 m/S 739 mmHg 92%
    18:00 +2°C° 0 mm 3 m/S 740 mmHg 92%
    19:00 +2°C° 0 mm 3 m/S 740 mmHg 92%
    20:00 +2°C° 0 mm 3 m/S 741 mmHg 91%
    21:00 +2°C° 0 mm 3 m/S 741 mmHg 92%
    22:00 +2°C° 0 mm 3 m/S 741 mmHg 93%
    23:00 +2°C° 0 mm 3 m/S 742 mmHg 95%
    Mehr zeigen